Weather History for Salina, KS

Change the Weather History Date:

Thursday, September 18, 2014

  Actual Average Record
Temperature  
Mean Temperature 75 °F 69 °F  
Max Temperature 86 °F 81 °F 102 °F (1931)
Min Temperature 63 °F 57 °F 36 °F (1973)
Degree Days  
Heating Degree Days 0 2  
Month to date heating degree days 38 13  
Since 1 July heating degree days 38 14  
Cooling Degree Days 10 6  
Month to date cooling degree days 119 154  
Year to date cooling degree days 1677 1561  
Growing Degree Days 24 (Base 50)    
Moisture  
Dew Point 64 °F    
Average Humidity 67    
Maximum Humidity 90    
Minimum Humidity 44    
Precipitation  
Precipitation 0.72 in 0.08 in 2.15 in (1959)
Month to date precipitation 1.21 1.64  
Year to date precipitation 22.49 25.98  
Sea Level Pressure  
Sea Level Pressure 29.91 in    
Wind  
Wind Speed 12 mph (ESE)    
Max Wind Speed 40 mph    
Max Gust Speed 49 mph    
Visibility 9 miles    
Events Rain , Thunderstorm    
T = Trace of Precipitation, MM = Missing Value Source: NWS Daily Summary

Daily Weather History Graph

Daily Weather History Graph

Search for Another Location

Airport:

Trip Planner

Search our weather history database for the weather conditions in past years. The results will help you decide how hot, cold, wet, or windy it might be!

Date:

Astronomy

Sep. 18, 2014 Rise Set
Actual Time 7:14 AM CDT 7:33 PM CDT
Civil Twilight 6:48 AM CDT 8:00 PM CDT
Nautical Twilight 6:16 AM CDT 8:31 PM CDT
Astronomical Twilight 5:44 AM CDT 9:03 PM CDT
Moon 2:10 AM CDT (9/18) 4:23 PM CDT (9/18)
Length of Visible Light 13h 12m
Length of Day
12h 19m
Waning Crescent, 26% of the Moon is Illuminated
Sep 18
Waning Crescent
Sep 24
New
Oct 1
First Quarter
Oct 8
Full
Oct 15
Last Quarter

Hourly Weather History & Observations

Time (CDT) Temp. Heat Index Dew Point Humidity Pressure Visibility Wind Dir Wind Speed Gust Speed Precip Events Conditions
12:53 AM 70.0 °F - 66.0 °F 87% 29.85 in 10.0 mi ESE 9.2 mph - N/A   Clear
1:32 AM 70.0 °F - 66.0 °F 87% 29.89 in 9.0 mi NNE 12.7 mph - N/A   Mostly Cloudy
1:36 AM 70.0 °F - 66.0 °F 87% 29.89 in 9.0 mi NE 9.2 mph - N/A Thunderstorm Mostly Cloudy
1:53 AM 70.0 °F - 66.0 °F 87% 29.86 in 9.0 mi NE 6.9 mph - N/A Thunderstorm Overcast
2:14 AM 70.0 °F - 66.0 °F 87% 29.90 in 8.0 mi NNE 12.7 mph - 0.00 in Thunderstorm Thunderstorm
2:29 AM 69.1 °F - 66.0 °F 90% 29.94 in 8.0 mi North 12.7 mph - 0.00 in Rain , Thunderstorm Light Rain
2:41 AM 70.0 °F - 66.0 °F 87% 29.99 in 4.0 mi North 40.3 mph 49.5 mph 0.05 in Rain , Thunderstorm Light Thunderstorms and Rain
2:43 AM 68.0 °F - 64.9 °F 90% 29.99 in 1.8 mi North 34.5 mph 49.5 mph 0.16 in Rain , Thunderstorm Heavy Thunderstorms and Rain
2:47 AM 64.4 °F - 60.8 °F 88% 29.99 in 0.8 mi NNE 23.0 mph 49.5 mph 0.43 in Rain , Thunderstorm Heavy Thunderstorms and Rain
2:53 AM 63.0 °F - 60.1 °F 90% 29.86 in 0.8 mi East 17.3 mph 35.7 mph 0.71 in Rain , Thunderstorm Heavy Thunderstorms and Rain
3:01 AM 66.0 °F - 60.1 °F 81% 29.89 in 3.0 mi East 13.8 mph 27.6 mph 0.01 in Rain , Thunderstorm Light Thunderstorms and Rain
3:14 AM 70.0 °F - 59.0 °F 68% 29.87 in 10.0 mi ESE 20.7 mph 27.6 mph 0.01 in Thunderstorm Thunderstorm
3:40 AM 69.1 °F - 61.0 °F 75% 29.86 in 10.0 mi ESE 11.5 mph 24.2 mph 0.01 in   Clear
3:53 AM 68.0 °F - 60.8 °F 78% 29.86 in 10.0 mi SE 8.1 mph - N/A   Clear
4:53 AM 64.0 °F - 61.0 °F 90% 29.86 in 10.0 mi NNE 4.6 mph - N/A   Scattered Clouds
5:53 AM 66.9 °F - 63.0 °F 87% 29.87 in 10.0 mi ENE 8.1 mph - N/A   Partly Cloudy
6:53 AM 66.2 °F - 62.6 °F 88% 29.92 in 10.0 mi East 9.2 mph - N/A   Clear
7:23 AM 66.0 °F - 63.0 °F 90% 29.93 in 10.0 mi East 9.2 mph - N/A   Mostly Cloudy
7:39 AM 66.9 °F - 63.0 °F 87% 29.94 in 10.0 mi East 9.2 mph - 0.00 in Rain , Thunderstorm Light Rain
7:53 AM 66.9 °F - 63.0 °F 87% 29.91 in 10.0 mi East 11.5 mph - 0.00 in   Overcast
8:53 AM 68.0 °F - 63.0 °F 84% 29.93 in 10.0 mi East 9.2 mph - N/A   Overcast
9:05 AM 68.0 °F - 63.0 °F 84% 29.96 in 10.0 mi East 10.4 mph - N/A   Overcast
9:53 AM 69.1 °F - 64.0 °F 84% 29.94 in 10.0 mi ESE 12.7 mph - N/A   Overcast
10:25 AM 69.1 °F - 64.0 °F 84% 29.98 in 10.0 mi ESE 15.0 mph - N/A   Overcast
10:53 AM 69.1 °F - 64.0 °F 84% 29.96 in 10.0 mi SE 17.3 mph - N/A   Overcast
11:53 AM 72.0 °F - 64.9 °F 78% 29.97 in 10.0 mi SE 12.7 mph - N/A   Overcast
12:53 PM 77.0 °F - 63.0 °F 62% 29.95 in 10.0 mi SSE 18.4 mph - N/A   Partly Cloudy
1:53 PM 81.0 °F 82.2 °F 63.0 °F 54% 29.93 in 10.0 mi South 16.1 mph 24.2 mph N/A   Clear
2:53 PM 82.9 °F 83.7 °F 62.1 °F 49% 29.91 in 10.0 mi South 15.0 mph 24.2 mph N/A   Clear
3:53 PM 84.0 °F 84.5 °F 62.1 °F 47% 29.88 in 10.0 mi South 17.3 mph 23.0 mph N/A   Clear
4:53 PM 84.9 °F 85.0 °F 61.0 °F 44% 29.87 in 10.0 mi South 12.7 mph 21.9 mph N/A   Clear
5:53 PM 84.9 °F 85.4 °F 62.1 °F 46% 29.86 in 10.0 mi SSE 6.9 mph - N/A   Clear
6:53 PM 82.0 °F 83.1 °F 63.0 °F 52% 29.87 in 10.0 mi ESE 12.7 mph - N/A   Clear
7:53 PM 75.9 °F - 66.0 °F 71% 29.88 in 10.0 mi ESE 12.7 mph - N/A   Clear
8:53 PM 73.9 °F - 66.0 °F 76% 29.90 in 10.0 mi SE 13.8 mph - N/A   Clear
9:53 PM 71.1 °F - 66.0 °F 84% 29.93 in 10.0 mi SE 12.7 mph - N/A   Clear
10:51 PM 69.8 °F - 64.4 °F 83% 29.96 in 10.0 mi SE 11.5 mph - N/A   Mostly Cloudy
10:53 PM 70.0 °F - 64.9 °F 84% 29.94 in 10.0 mi SE 12.7 mph - N/A   Mostly Cloudy
11:14 PM 69.1 °F - 64.9 °F 87% 29.96 in 10.0 mi SE 10.4 mph - N/A   Scattered Clouds
11:53 PM 69.1 °F - 64.9 °F 87% 29.94 in 10.0 mi SSE 11.5 mph - N/A   Partly Cloudy